Vorticity
10 10 11 7 3 4 7 4 10 15 17 14 23 26 33 32 27 26 23 17 14 17 19 10 2 3 6 16 18 20 24 24 19 13 12 11 13 12 11 14 16 19 21
9 6 1 3 -3 -4 8 5 11 11 21 18 29 39 31 21 17 11 10 10 13 14 16 16 18 18 16 15 16 14 11 8 7 7 8 8 9 11 10 10 11 13 17
-2 6 11 11 16 -5 5 17 19 24 30 27 44 33 17 18 19 18 15 14 13 15 13 14 16 13 10 12 16 18 16 14 11 9 9 9 8 9 11 13 13 8 11
11 14 12 5 10 -19 -0 17 30 36 36 42 21 9 14 7 3 4 17 15 15 17 13 7 5 10 11 9 8 8 10 13 15 16 17 18 16 10 8 8 9 15 14
7 13 8 -3 -12 13 18 30 35 42 21 11 7 8 4 11 14 20 13 14 8 5 8 11 12 11 9 11 15 17 11 8 11 16 17 16 12 10 12 11 13 9 11
-10 -16 2 15 27 15 37 43 35 11 9 7 6 5 8 13 14 15 10 6 8 12 13 11 9 12 15 15 7 14 33 52 47 40 41 43 50 56 42 19 13 11 10
-5 31 30 -9 22 44 36 21 15 11 12 13 16 17 16 15 13 7 5 8 14 13 9 11 16 15 12 16 36 35 16 4 5 5 4 5 5 7 23 46 40 29 23
11 10 19 -2 52 31 18 15 12 13 12 12 12 10 7 5 6 8 9 13 12 10 13 17 15 11 25 31 12 6 5 4 5 6 2 4 5 7 6 7 12 30 43
2 15 15 51 24 14 9 14 14 12 8 6 7 8 10 10 11 11 12 12 13 14 15 15 12 28 22 7 6 9 17 19 18 18 17 13 16 17 11 10 3 -2 -2
7 29 48 21 12 12 15 10 6 7 11 11 11 11 11 11 11 11 12 14 17 17 16 13 20 22 6 5 15 22 18 19 25 25 33 32 32 30 30 21 7 8 13
39 36 20 8 13 14 6 8 10 9 10 14 18 19 20 19 17 17 18 20 19 18 16 21 17 8 7 17 11 26 34 35 26 21 19 13 12 15 16 18 29 15 4
32 13 10 16 9 8 8 9 14 19 21 22 22 24 26 26 26 27 31 27 21 21 21 17 12 11 21 23 29 21 18 18 17 14 17 21 20 17 12 33 33 21 19
12 11 13 8 7 7 14 20 24 20 19 21 21 20 16 17 20 28 35 26 25 23 13 11 15 22 22 13 4 3 5 6 5 3 11 16 8 15 24 23 16 38 23
10 10 9 6 12 20 25 21 19 19 20 19 16 18 22 22 22 29 34 30 16 12 16 17 18 23 5 -1 4 2 13 12 17 21 16 6 19 21 13 3 12 26 12
11 9 8 13 21 20 19 17 17 15 16 19 22 18 21 25 24 39 28 11 9 5 7 14 19 19 5 3 4 7 8 14 12 16 29 32 16 7 4 9 10 12 12
8 10 13 20 19 18 16 19 7 21 19 17 21 34 31 26 24 26 14 12 4 5 6 18 20 23 10 5 8 -0 13 7 9 17 19 22 28 22 17 21 21 20 11
10 12 16 20 16 14 9 15 11 19 17 23 22 14 19 25 23 19 12 8 7 8 7 17 19 14 7 6 3 -1 7 2 6 10 10 14 19 36 28 28 39 24 23
12 11 16 15 15 8 22 18 19 18 20 20 11 24 28 16 27 11 9 7 5 10 13 8 11 16 14 11 7 3 7 3 7 9 5 4 4 10 25 26 29 28 27
9 9 13 16 14 16 15 13 15 21 16 15 21 34 16 21 21 11 6 3 4 10 11 12 7 8 10 10 12 7 5 5 6 8 6 7 -0 1 5 13 28 26 29
8 9 10 15 15 18 11 12 18 19 16 20 24 28 11 27 15 10 5 1 3 5 8 9 12 10 7 7 8 9 8 9 9 11 7 4 6 10 6 7 8 27 24
10 8 9 14 16 16 10 13 15 17 21 21 22 20 15 21 13 11 4 2 3 1 5 6 4 8 9 7 6 5 8 11 11 7 4 0 1 2 6 7 8 8 12
11 10 10 12 16 13 12 11 13 17 18 21 20 17 14 25 13 12 9 2 2 4 2 4 5 6 5 7 9 11 10 8 9 8 8 1 3 10 9 9 7 5 9
6 12 12 12 14 15 11 11 12 14 19 19 17 14 14 19 20 13 11 8 4 5 4 5 6 5 6 8 9 12 12 12 9 8 9 8 6 3 4 6 6 8 7
5 10 11 14 12 15 13 9 11 11 19 16 17 15 12 12 22 22 11 11 8 5 6 4 3 4 5 5 6 6 7 10 11 9 8 10 8 4 5 8 8 6 6
9 9 11 13 15 12 10 19 7 10 10 19 17 17 14 12 12 24 26 10 10 10 8 5 3 4 5 5 6 5 6 6 5 9 10 9 10 5 6 6 7 3 3
7 10 10 13 16 13 9 10 13 12 10 9 17 17 16 14 13 13 23 30 12 7 8 10 9 8 7 6 7 6 5 6 4 4 11 11 8 9 7 6 6 6 5
Height
5633 5623 5613 5603 5593 5583 5571 5561 5549 5539 5530 5520 5510 5501 5493 5486 5481 5476 5472 5469 5467 5466 5464 5463 5462 5460 5461 5459 5456 5455 5453 5451 5449 5458 5457 5459 5465 5466 5467 5468 5470 5472 5477
5616 5607 5595 5583 5573 5562 5553 5541 5529 5518 5508 5499 5488 5477 5470 5465 5461 5458 5456 5452 5450 5449 5447 5445 5444 5442 5441 5438 5436 5436 5434 5432 5431 5435 5437 5438 5441 5446 5448 5450 5451 5454 5457
5598 5588 5576 5565 5554 5542 5531 5519 5507 5495 5485 5475 5466 5458 5454 5450 5446 5443 5440 5438 5435 5433 5431 5429 5427 5425 5423 5420 5418 5418 5416 5413 5412 5413 5416 5418 5419 5423 5426 5429 5433 5436 5440
5581 5569 5557 5546 5534 5521 5509 5497 5483 5471 5462 5454 5448 5444 5439 5436 5432 5429 5426 5423 5420 5418 5415 5413 5410 5407 5405 5403 5400 5399 5396 5394 5393 5392 5393 5397 5398 5401 5404 5408 5411 5416 5422
5564 5551 5539 5529 5514 5500 5487 5474 5461 5451 5444 5440 5435 5430 5425 5422 5418 5415 5412 5409 5406 5403 5399 5396 5393 5391 5388 5385 5382 5380 5376 5373 5371 5370 5370 5371 5375 5378 5380 5382 5389 5394 5403
5545 5534 5521 5508 5493 5479 5463 5452 5443 5437 5433 5428 5423 5418 5413 5408 5404 5401 5399 5396 5392 5388 5385 5382 5379 5375 5371 5368 5364 5360 5357 5354 5352 5350 5350 5351 5352 5353 5356 5360 5365 5371 5383
5528 5513 5499 5487 5472 5457 5446 5438 5432 5426 5420 5414 5409 5404 5399 5394 5391 5388 5384 5381 5377 5373 5370 5367 5364 5359 5355 5351 5347 5343 5342 5341 5341 5341 5341 5341 5342 5341 5342 5343 5347 5351 5359
5508 5494 5479 5466 5452 5441 5433 5426 5419 5412 5406 5401 5395 5390 5385 5380 5376 5372 5368 5365 5361 5357 5354 5351 5348 5346 5340 5337 5336 5335 5333 5331 5329 5328 5329 5330 5330 5330 5331 5333 5334 5337 5341
5489 5477 5462 5448 5438 5431 5422 5414 5407 5400 5394 5387 5381 5375 5370 5365 5359 5355 5352 5350 5346 5343 5340 5336 5335 5332 5330 5328 5328 5326 5323 5319 5315 5313 5314 5315 5317 5318 5319 5321 5324 5326 5331
5471 5460 5446 5436 5428 5420 5411 5403 5395 5387 5380 5372 5365 5358 5352 5347 5341 5338 5336 5334 5333 5331 5327 5325 5323 5322 5322 5320 5317 5314 5310 5305 5302 5301 5301 5302 5303 5304 5305 5307 5310 5314 5318
5453 5442 5433 5425 5416 5407 5398 5390 5381 5373 5364 5355 5348 5339 5332 5326 5323 5320 5319 5319 5319 5318 5317 5316 5315 5315 5314 5311 5308 5304 5300 5297 5295 5295 5295 5296 5296 5295 5294 5294 5296 5300 5305
5439 5431 5422 5413 5404 5395 5386 5376 5366 5356 5346 5338 5331 5324 5315 5307 5302 5302 5303 5304 5306 5308 5308 5308 5309 5309 5307 5307 5304 5300 5297 5294 5293 5292 5291 5289 5287 5286 5285 5283 5284 5288 5292
5428 5419 5411 5402 5393 5382 5372 5361 5350 5341 5332 5325 5318 5312 5305 5298 5293 5290 5290 5293 5297 5300 5301 5302 5303 5303 5303 5302 5300 5298 5295 5292 5289 5287 5285 5283 5281 5279 5278 5277 5277 5279 5281
5418 5410 5401 5392 5382 5370 5358 5348 5338 5330 5322 5315 5307 5301 5295 5289 5285 5283 5284 5287 5291 5294 5296 5297 5298 5298 5300 5300 5298 5297 5293 5290 5286 5283 5280 5277 5275 5274 5273 5272 5272 5272 5273
5409 5401 5392 5382 5371 5360 5349 5339 5330 5320 5313 5306 5299 5292 5287 5282 5279 5279 5280 5284 5288 5291 5293 5293 5293 5295 5296 5297 5297 5295 5291 5287 5284 5280 5275 5272 5270 5269 5267 5265 5265 5265 5266
5401 5392 5383 5372 5361 5351 5342 5333 5322 5313 5305 5299 5292 5286 5281 5278 5276 5277 5280 5283 5287 5289 5291 5291 5291 5293 5294 5295 5294 5293 5289 5286 5282 5279 5274 5269 5266 5263 5260 5257 5255 5254 5255
5394 5385 5375 5364 5354 5345 5336 5328 5320 5310 5300 5295 5289 5284 5280 5277 5277 5278 5281 5284 5287 5289 5290 5290 5290 5291 5292 5292 5292 5290 5288 5285 5282 5279 5275 5270 5265 5259 5254 5250 5246 5246 5247
5387 5378 5368 5358 5349 5339 5330 5322 5314 5306 5299 5292 5287 5282 5279 5278 5278 5280 5283 5285 5288 5289 5289 5290 5290 5290 5290 5290 5289 5289 5287 5286 5283 5280 5276 5272 5266 5260 5254 5249 5245 5243 5244
5381 5372 5363 5353 5344 5335 5326 5318 5310 5303 5296 5290 5285 5281 5279 5279 5280 5282 5284 5287 5289 5289 5289 5290 5290 5290 5290 5289 5288 5287 5286 5285 5283 5280 5277 5273 5269 5263 5258 5251 5246 5243 5242
5376 5367 5358 5349 5340 5331 5323 5316 5308 5300 5294 5288 5284 5282 5280 5280 5282 5284 5286 5287 5289 5289 5289 5290 5290 5289 5289 5289 5288 5286 5285 5284 5282 5280 5277 5274 5271 5267 5261 5256 5250 5245 5242
5370 5363 5354 5346 5337 5329 5321 5314 5306 5299 5293 5288 5285 5283 5281 5281 5283 5285 5286 5288 5288 5289 5289 5290 5290 5289 5289 5288 5287 5285 5284 5283 5281 5279 5277 5275 5272 5268 5264 5260 5255 5250 5246
5365 5358 5351 5342 5334 5326 5319 5313 5306 5299 5293 5289 5286 5284 5282 5282 5282 5284 5285 5287 5287 5288 5289 5289 5289 5288 5287 5286 5285 5284 5283 5282 5280 5278 5276 5275 5272 5269 5265 5262 5258 5254 5250
5361 5354 5346 5338 5331 5324 5317 5311 5305 5299 5293 5290 5286 5284 5282 5281 5281 5282 5283 5284 5285 5286 5287 5287 5287 5287 5286 5285 5284 5283 5281 5280 5279 5277 5275 5273 5271 5269 5266 5263 5259 5256 5253
5357 5350 5343 5335 5328 5322 5316 5310 5304 5299 5294 5289 5286 5283 5281 5280 5279 5279 5280 5281 5282 5283 5283 5284 5284 5284 5283 5283 5282 5280 5279 5278 5276 5275 5273 5271 5269 5267 5265 5262 5259 5256 5254
5352 5346 5339 5332 5325 5320 5314 5308 5303 5298 5293 5289 5285 5282 5280 5278 5277 5276 5276 5276 5278 5278 5279 5279 5280 5280 5280 5279 5279 5277 5276 5275 5273 5272 5270 5268 5267 5265 5263 5261 5259 5256 5253
5347 5341 5335 5328 5322 5317 5312 5306 5301 5296 5292 5288 5284 5281 5278 5276 5274 5273 5272 5271 5272 5273 5274 5274 5274 5275 5275 5275 5274 5273 5273 5271 5270 5268 5266 5264 5263 5261 5259 5258 5256 5254 5251